HYS481 LUKK-LROP

Flight info

Callsign HYS481
Flight time 0h 36m
Altitude 30000
Route LIPTA T34 KODRU DCT DENAK
Aircraft A320/M-SDE3FGHIRWY/LB1

Departure

Time 2026-05-09 19:30
Airport Chişinău International Airport (LUKK)

Arrival

Time 2026-05-09 20:06
Airport Bucharest Henri Coandă International Airport (LROP)
Time Latitude Longitude Altitude Speed Heading
2026-05-09 19:03 46.93480 28.93330 408 ft 0 kts 94°
2026-05-09 19:26 46.93480 28.93331 408 ft 1 kts 94°
2026-05-09 19:26 46.93478 28.93349 408 ft 3 kts 108°
2026-05-09 19:26 46.93463 28.93388 408 ft 6 kts 125°
2026-05-09 19:27 46.93435 28.93446 408 ft 8 kts 125°
2026-05-09 19:27 46.93381 28.93484 408 ft 10 kts 180°
2026-05-09 19:27 46.93301 28.93470 408 ft 12 kts 187°
2026-05-09 19:27 46.93239 28.93458 409 ft 8 kts 187°
2026-05-09 19:28 46.93193 28.93450 407 ft 6 kts 187°
2026-05-09 19:28 46.93148 28.93442 411 ft 7 kts 187°
2026-05-09 19:28 46.93089 28.93432 410 ft 11 kts 187°
2026-05-09 19:28 46.92998 28.93415 409 ft 15 kts 186°
2026-05-09 19:29 46.92889 28.93416 409 ft 14 kts 178°
2026-05-09 19:29 46.92794 28.93425 409 ft 9 kts 142°
2026-05-09 19:29 46.92789 28.93558 409 ft 35 kts 88°
2026-05-09 19:29 46.92806 28.94410 409 ft 127 kts 88°
2026-05-09 19:30 46.92832 28.95986 676 ft 171 kts 89°
2026-05-09 19:30 46.92829 28.97794 1518 ft 184 kts 91°
2026-05-09 19:30 46.92531 28.99607 2389 ft 187 kts 121°
2026-05-09 19:30 46.91543 29.00932 2742 ft 206 kts 158°
2026-05-09 19:31 46.90074 29.01041 3079 ft 226 kts 199°
2026-05-09 19:31 46.88724 28.99682 3465 ft 250 kts 225°
2026-05-09 19:31 46.87494 28.97778 4234 ft 262 kts 229°
2026-05-09 19:31 46.86285 28.95761 5194 ft 266 kts 229°
2026-05-09 19:32 46.85067 28.93701 6147 ft 270 kts 229°
2026-05-09 19:32 46.83733 28.91460 5070 ft 338 kts 229°
2026-05-09 19:32 46.82001 28.88604 4766 ft 381 kts 228°
2026-05-09 19:32 46.80257 28.85768 6098 ft 370 kts 228°
2026-05-09 19:33 46.78567 28.83034 7503 ft 352 kts 228°
2026-05-09 19:33 46.76966 28.80454 8987 ft 333 kts 228°
2026-05-09 19:33 46.75455 28.78026 10415 ft 317 kts 228°
2026-05-09 19:33 46.73940 28.75593 10946 ft 334 kts 228°
2026-05-09 19:34 46.72348 28.73039 11486 ft 344 kts 228°
2026-05-09 19:34 46.70723 28.70441 12183 ft 349 kts 228°
2026-05-09 19:34 46.69083 28.67815 12895 ft 353 kts 228°
2026-05-09 19:34 46.67421 28.65155 13594 ft 357 kts 228°
2026-05-09 19:35 46.65762 28.62503 14275 ft 360 kts 228°
2026-05-09 19:35 46.64043 28.59757 14955 ft 364 kts 228°
2026-05-09 19:35 46.62303 28.57132 15584 ft 368 kts 225°
2026-05-09 19:35 46.60438 28.54487 16217 ft 371 kts 224°
2026-05-09 19:36 46.58591 28.51917 16826 ft 374 kts 224°
2026-05-09 19:36 46.56669 28.49269 17440 ft 378 kts 224°
2026-05-09 19:36 46.54776 28.46667 18021 ft 381 kts 224°
2026-05-09 19:36 46.52846 28.44012 18635 ft 384 kts 224°
2026-05-09 19:37 46.50898 28.41325 19230 ft 388 kts 224°
2026-05-09 19:37 46.48938 28.38612 19817 ft 391 kts 224°
2026-05-09 19:37 46.46959 28.35875 20374 ft 394 kts 224°
2026-05-09 19:37 46.44963 28.33123 20934 ft 398 kts 224°
2026-05-09 19:38 46.42950 28.30347 21451 ft 401 kts 224°
2026-05-09 19:38 46.40919 28.27544 21942 ft 404 kts 224°
2026-05-09 19:38 46.38873 28.24719 22429 ft 407 kts 224°
2026-05-09 19:38 46.36820 28.21887 22898 ft 410 kts 224°
2026-05-09 19:39 46.35448 28.20000 23216 ft 412 kts 224°
2026-05-09 19:39 46.33358 28.17132 23687 ft 415 kts 224°
2026-05-09 19:39 46.31257 28.14255 24143 ft 418 kts 224°
2026-05-09 19:39 46.29133 28.11352 24580 ft 420 kts 224°
2026-05-09 19:40 46.27004 28.08443 25017 ft 423 kts 224°
2026-05-09 19:40 46.24855 28.05506 25425 ft 426 kts 224°
2026-05-09 19:40 46.22694 28.02553 25836 ft 429 kts 224°
2026-05-09 19:40 46.20520 27.99586 26229 ft 432 kts 224°
2026-05-09 19:41 46.18328 27.96598 26627 ft 434 kts 223°
2026-05-09 19:41 46.16123 27.93602 27004 ft 437 kts 223°
2026-05-09 19:41 46.13900 27.90586 27404 ft 440 kts 223°
2026-05-09 19:41 46.11669 27.87558 27781 ft 443 kts 223°
2026-05-09 19:42 46.09418 27.84502 28148 ft 445 kts 223°
2026-05-09 19:42 46.07152 27.81426 28512 ft 448 kts 223°
2026-05-09 19:42 46.04903 27.78383 28882 ft 450 kts 223°
2026-05-09 19:42 46.02614 27.75292 29232 ft 453 kts 223°
2026-05-09 19:43 46.00307 27.72183 29567 ft 455 kts 223°
2026-05-09 19:43 45.97986 27.69062 29900 ft 458 kts 223°
2026-05-09 19:43 45.93365 27.62851 30011 ft 449 kts 223°
2026-05-09 19:44 45.88815 27.56738 30020 ft 447 kts 223°
2026-05-09 19:44 45.84273 27.50662 30006 ft 446 kts 223°
2026-05-09 19:45 45.79729 27.44594 30002 ft 446 kts 223°
2026-05-09 19:45 45.75204 27.38574 30001 ft 446 kts 223°
2026-05-09 19:46 45.70657 27.32526 30002 ft 446 kts 223°
2026-05-09 19:46 45.66120 27.26504 30002 ft 446 kts 223°
2026-05-09 19:47 45.61562 27.20478 30002 ft 446 kts 223°
2026-05-09 19:47 45.57007 27.14467 30003 ft 446 kts 223°
2026-05-09 19:48 45.52418 27.08413 29062 ft 452 kts 223°
2026-05-09 19:48 45.50106 27.05369 27808 ft 449 kts 223°
2026-05-09 19:48 45.47868 27.02434 27526 ft 422 kts 223°
2026-05-09 19:49 45.45757 26.99670 27035 ft 406 kts 223°
2026-05-09 19:49 45.43672 26.96942 26412 ft 407 kts 223°
2026-05-09 19:49 45.41585 26.94214 25798 ft 405 kts 223°
2026-05-09 19:49 45.39508 26.91502 25189 ft 406 kts 223°
2026-05-09 19:50 45.37431 26.88789 24569 ft 405 kts 223°
2026-05-09 19:50 45.35359 26.86081 23966 ft 404 kts 223°
2026-05-09 19:50 45.33321 26.83420 23371 ft 402 kts 223°
2026-05-09 19:50 45.31260 26.80738 22779 ft 401 kts 223°
2026-05-09 19:51 45.29208 26.78072 22197 ft 399 kts 223°
2026-05-09 19:51 45.27165 26.75422 21643 ft 397 kts 223°
2026-05-09 19:51 45.25129 26.72781 21102 ft 395 kts 223°
2026-05-09 19:51 45.23108 26.70156 20567 ft 392 kts 223°
2026-05-09 19:52 45.21108 26.67560 20037 ft 388 kts 223°
2026-05-09 19:52 45.19125 26.64988 19518 ft 385 kts 223°
2026-05-09 19:52 45.17153 26.62437 18988 ft 381 kts 223°
2026-05-09 19:52 45.15201 26.59916 18468 ft 378 kts 223°
2026-05-09 19:53 45.13264 26.57412 17909 ft 375 kts 223°
2026-05-09 19:53 45.11347 26.54936 17367 ft 372 kts 223°
2026-05-09 19:53 45.09443 26.52481 16817 ft 369 kts 223°
2026-05-09 19:53 45.07573 26.50074 16253 ft 366 kts 222°
2026-05-09 19:54 45.05691 26.47659 15692 ft 364 kts 222°
2026-05-09 19:54 45.03819 26.45259 15107 ft 362 kts 222°
2026-05-09 19:54 45.01961 26.42872 14538 ft 360 kts 222°
2026-05-09 19:54 45.00112 26.40500 13960 ft 358 kts 222°
2026-05-09 19:55 44.98274 26.38149 13387 ft 355 kts 222°
2026-05-09 19:55 44.96449 26.35817 12813 ft 353 kts 222°
2026-05-09 19:55 44.94636 26.33496 12234 ft 350 kts 222°
2026-05-09 19:56 44.91050 26.28910 11100 ft 346 kts 222°
2026-05-09 19:56 44.89273 26.26648 10614 ft 341 kts 222°
2026-05-09 19:56 44.87552 26.24458 10485 ft 327 kts 222°
2026-05-09 19:56 44.85920 26.22384 10341 ft 304 kts 222°
2026-05-09 19:57 44.84381 26.20428 10074 ft 295 kts 222°
2026-05-09 19:57 44.82875 26.18514 9868 ft 288 kts 222°
2026-05-09 19:57 44.81391 26.16629 9754 ft 287 kts 222°
2026-05-09 19:57 44.79912 26.14747 9597 ft 287 kts 222°
2026-05-09 19:58 44.78417 26.12845 9152 ft 291 kts 222°
2026-05-09 19:58 44.76926 26.10952 8866 ft 287 kts 222°
2026-05-09 19:58 44.75450 26.09082 8390 ft 284 kts 222°
2026-05-09 19:58 44.73986 26.07229 7744 ft 282 kts 222°
2026-05-09 19:59 44.72531 26.05392 7118 ft 280 kts 222°
2026-05-09 19:59 44.71090 26.03573 6503 ft 277 kts 222°
2026-05-09 19:59 44.69661 26.01766 5892 ft 275 kts 222°
2026-05-09 19:59 44.68245 25.99976 5280 ft 273 kts 222°
2026-05-09 20:00 44.66841 25.98205 4661 ft 270 kts 222°
2026-05-09 20:00 44.65454 25.96462 4302 ft 259 kts 222°
2026-05-09 20:00 44.64168 25.94848 4214 ft 238 kts 222°
2026-05-09 20:00 44.62978 25.93355 4083 ft 220 kts 222°
2026-05-09 20:01 44.61876 25.91969 3988 ft 207 kts 222°
2026-05-09 20:01 44.60845 25.90669 3918 ft 193 kts 222°
2026-05-09 20:01 44.59854 25.89420 3817 ft 189 kts 222°
2026-05-09 20:01 44.58906 25.88226 3186 ft 199 kts 222°
2026-05-09 20:02 44.57658 25.87079 2188 ft 225 kts 196°
2026-05-09 20:02 44.56226 25.87307 2107 ft 196 kts 148°
2026-05-09 20:02 44.55372 25.88631 2175 ft 178 kts 116°
2026-05-09 20:03 44.55240 25.91925 2338 ft 169 kts 83°
2026-05-09 20:03 44.55373 25.93567 2263 ft 173 kts 83°
2026-05-09 20:03 44.55506 25.95240 1889 ft 165 kts 83°
2026-05-09 20:03 44.55626 25.96768 1724 ft 150 kts 83°
2026-05-09 20:04 44.55737 25.98192 1541 ft 144 kts 84°
2026-05-09 20:04 44.55844 25.99573 1370 ft 141 kts 84°
2026-05-09 20:04 44.55949 26.00936 1203 ft 140 kts 84°
2026-05-09 20:04 44.56052 26.02292 1036 ft 139 kts 84°
2026-05-09 20:05 44.56153 26.03643 869 ft 139 kts 83°
2026-05-09 20:05 44.56263 26.04985 699 ft 139 kts 84°
2026-05-09 20:05 44.56362 26.06329 524 ft 138 kts 84°
2026-05-09 20:05 44.56465 26.07666 372 ft 138 kts 83°
2026-05-09 20:06 44.56558 26.08895 318 ft 107 kts 84°
2026-05-09 20:06 44.56618 26.09711 314 ft 71 kts 83°
2026-05-09 20:06 44.56669 26.10357 318 ft 63 kts 84°
2026-05-09 20:06 44.56704 26.10756 315 ft 4 kts 45°
2026-05-09 20:07 44.56759 26.10763 316 ft 14 kts 356°
2026-05-09 20:07 44.56906 26.10742 314 ft 28 kts 353°
2026-05-09 20:07 44.57057 26.10586 312 ft 30 kts 296°
2026-05-09 20:07 44.57053 26.10315 312 ft 29 kts 263°
2026-05-09 20:08 44.57033 26.10033 312 ft 18 kts 263°
2026-05-09 20:08 44.56995 26.09798 313 ft 5 kts 174°
2026-05-09 20:08 44.56970 26.09802 314 ft 3 kts 175°
2026-05-09 20:09 44.56967 26.09802 314 ft 0 kts 175°